This is the latest recevied weather packets stored in our database for station/object K7SPS-10. If no packets are shown the sender has not sent any weather packets the latest 10 day(s).
| Time | Temp. | Humidity | Pressure | Rain* | Wind** | Luminosity | Snow |
|---|---|---|---|---|---|---|---|
| 1777688821 | 20.56° C | 37% | 1016.6 hPa | 0 mm | - | 16 W/m² | - |
| 1777688518 | 21.11° C | 37% | 1016.6 hPa | 0 mm | - | 20 W/m² | - |
| 1777688216 | 21.11° C | 36% | 1016.5 hPa | 0 mm | - | 26 W/m² | - |
| 1777687913 | 21.67° C | 36% | 1016.7 hPa | 0 mm | - | 32 W/m² | - |
| 1777687610 | 21.67° C | 35% | 1016.7 hPa | 0 mm | - | 37 W/m² | - |
| 1777687307 | 21.67° C | 35% | 1016.6 hPa | 0 mm | - | 42 W/m² | - |
| 1777687005 | 21.67° C | 34% | 1016.7 hPa | 0 mm | - | 47 W/m² | - |
| 1777686700 | 21.67° C | 34% | 1016.7 hPa | 0 mm | - | 51 W/m² | - |
| 1777686398 | 22.22° C | 33% | 1016.8 hPa | 0 mm | - | 57 W/m² | - |
| 1777686095 | 22.22° C | 29% | 1016.8 hPa | 0 mm | - | 64 W/m² | - |
| 1777685791 | 22.22° C | 29% | 1016.6 hPa | 0 mm | - | 72 W/m² | - |
| 1777685486 | 22.22° C | 30% | 1017 hPa | 0 mm | - | 73 W/m² | - |
| 1777685184 | 22.78° C | 31% | 1016.9 hPa | 0 mm | - | 88 W/m² | - |
| 1777684882 | 22.78° C | 29% | 1016.9 hPa | 0 mm | - | 100 W/m² | - |
| 1777684579 | 22.78° C | 30% | 1016.9 hPa | 0 mm | - | 109 W/m² | - |
| 1777684274 | 23.33° C | 31% | 1017 hPa | 0 mm | - | 117 W/m² | - |
| 1777683973 | 23.33° C | 28% | 1016.9 hPa | 0 mm | - | 139 W/m² | - |
| 1777683669 | 23.33° C | 27% | 1017.1 hPa | 0 mm | - | 150 W/m² | - |
| 1777683367 | 23.33° C | 28% | 1017.1 hPa | 0 mm | - | 148 W/m² | - |
| 1777683064 | 23.33° C | 28% | 1017.4 hPa | 0 mm | - | 149 W/m² | - |
| 1777682759 | 23.33° C | 27% | 1017.3 hPa | 0 mm | - | 185 W/m² | - |
| 1777682456 | 24.44° C | 28% | 1017.1 hPa | 0 mm | - | 209 W/m² | - |
| 1777682155 | 23.33° C | 25% | 1017.4 hPa | 0 mm | - | 218 W/m² | - |
| 1777681851 | 23.33° C | 25% | 1017.3 hPa | 0 mm | - | 214 W/m² | - |
| 1777681547 | 23.33° C | 26% | 1017.5 hPa | 0 mm | - | 258 W/m² | - |
* Rain latest hour (hover to see other rain measurements)
** Current wind speed in m/s (hover to see current wind gust speed)